Regional Weather Roundup
Issued by NWS Sioux Falls, SD

Home | Current Version | Previous Version | Text Only | Print | Product List | Glossary Off
Versions: 1 2 3 4 5 6 7 8 9 10 11 12 13 14 15 16 17 18 19 20 21 22 23 24 25 26 27 28 29 30 31 32 33 34 35 36 37 38 39 40 41 42 43 44 45 46 47 48 49 50
149 ASUS43 KFSD 250310 RWRFSD WEATHER ROUNDUP FOR SE SOUTH DAKOTA/SW MINNESOTA/NW IOWA NATIONAL WEATHER SERVICE SIOUX FALLS SD 1000 PM CDT SAT AUG 24 2019 NOTE: "FAIR" INDICATES FEW OR NO CLOUDS BELOW 12,000 FEET WITH NO SIGNIFICANT WEATHER AND OR OBSTRUCTIONS TO VISIBILITY. SDZ038>040-050-052>070-250400- SOUTHEAST SOUTH DAKOTA CITY SKY/WX TMP DP RH WIND PRES REMARKS BROOKINGS CLEAR 63 58 83 SE13 30.05R CHAMBERLAIN MOCLDY 67 67 100 SE15 29.94S HURON PTCLDY 66 60 81 SE13 29.97S MADISON FAIR 63 63 100 SE15 30.05R MITCHELL CLOUDY 69 60 73 SE15G24 29.99S SIOUX FALLS MOCLDY 66 58 75 SE12 30.05R WINNER FAIR 67 63 87 SE13 29.93F YANKTON CLOUDY 67 61 81 SE13 30.01F $$ MNZ071-072-080-081-089-090-097-098-250400- SOUTHWEST MINNESOTA CITY SKY/WX TMP DP RH WIND PRES REMARKS FAIRMONT CLEAR 62 56 80 SE7 30.10F JACKSON CLEAR 61 54 77 SE7 30.10F MARSHALL CLEAR 64 57 78 SE10 30.07S MONTEVIDEO CLEAR 63 54 72 S5 30.07S PIPESTONE CLEAR 63 57 82 S7 30.07S REDWOOD FALLS CLEAR 63 56 78 SE8 30.07F TRACY CLEAR 63 57 82 S6 30.07F WINDOM CLEAR 61 54 77 SE8 30.08F WORTHINGTON CLEAR 61 56 83 SE6 30.09S $$ IAZ001>003-012>014-020>022-031-032-NEZ013-014-SDZ071-250400- NORTHWEST IOWA CITY SKY/WX TMP DP RH WIND PRES REMARKS CHEROKEE CLEAR 63 58 83 SE7 30.07S DENISON CLOUDY 66 61 82 VRB5 30.08R ESTHERVILLE CLEAR 59 55 87 SE9 30.09S LE MARS MOCLDY 64 61 88 SE7 30.06R MAURICE MOCLDY 63 59 88 SE9 30.05R SHELDON N/A 63 57 82 SE8 30.06R SIOUX CITY CLOUDY 66 59 78 SE7 30.05R SPENCER CLEAR 66 55 67 SE14G23 30.08S STORM LAKE PTCLDY 61 59 94 SE9G15 30.05S $$ ABBREVIATIONS USED IN REMARKS TC - TEMPERATURE IN CELSIUS WCI - WIND CHILL INDEX HX - HEAT INDEX VSB - VISIBILITY

USA.gov is the U.S. government's official web portal to all federal, state and local government web resources and services.